This is the latest recevied weather packets stored in our database for station/object K5SVV. If no packets are shown the sender has not sent any weather packets the latest 10 day(s).
| Time | Temp. | Humidity | Pressure | Rain* | Wind** | Luminosity | Snow |
|---|---|---|---|---|---|---|---|
| 1777768791 | 21.67° C | 49% | 1018.3 hPa | 0 mm | - | 22 W/m² | - |
| 1777768487 | 21.67° C | 48% | 1018.4 hPa | 0 mm | - | 25 W/m² | - |
| 1777768184 | 22.22° C | 46% | 1018.5 hPa | 0 mm | - | 29 W/m² | - |
| 1777767882 | 22.22° C | 46% | 1018 hPa | 0 mm | - | 32 W/m² | - |
| 1777767578 | 22.22° C | 44% | 1018.1 hPa | 0 mm | - | 35 W/m² | - |
| 1777767275 | 22.78° C | 44% | 1018.3 hPa | 0 mm | - | 37 W/m² | - |
| 1777766973 | 22.78° C | 42% | 1018.2 hPa | 0 mm | - | 40 W/m² | - |
| 1777766669 | 22.78° C | 43% | 1018.1 hPa | 0 mm | - | 42 W/m² | - |
| 1777766367 | 22.78° C | 40% | 1018.3 hPa | 0 mm | - | 44 W/m² | - |
| 1777766063 | 22.78° C | 40% | 1018.3 hPa | 0 mm | - | 46 W/m² | - |
| 1777765761 | 22.78° C | 42% | 1018 hPa | 0 mm | - | 50 W/m² | - |
| 1777765457 | 22.78° C | 39% | 1017.9 hPa | 0 mm | - | 53 W/m² | - |
| 1777765154 | 23.33° C | 40% | 1018.2 hPa | 0 mm | - | 146 W/m² | - |
| 1777764849 | 23.89° C | 38% | 1018.2 hPa | 0 mm | - | 154 W/m² | - |
| 1777764547 | 24.44° C | 40% | 1018.1 hPa | 0 mm | - | 180 W/m² | - |
| 1777764243 | 23.89° C | 40% | 1018.1 hPa | 0 mm | - | 193 W/m² | - |
| 1777763940 | 23.33° C | 38% | 1018.2 hPa | 0 mm | - | 206 W/m² | - |
| 1777763638 | 23.33° C | 40% | 1018.1 hPa | 0 mm | - | 223 W/m² | - |
| 1777763336 | 23.89° C | 38% | 1018.3 hPa | 0 mm | - | 240 W/m² | - |
| 1777763034 | 23.89° C | 38% | 1018.2 hPa | 0 mm | - | 276 W/m² | - |
| 1777762730 | 23.33° C | 41% | 1018.3 hPa | 0 mm | - | 256 W/m² | - |
| 1777762427 | 23.33° C | 39% | 1018.1 hPa | 0 mm | - | 302 W/m² | - |
| 1777762124 | 23.33° C | 38% | 1018.3 hPa | 0 mm | - | 317 W/m² | - |
| 1777761820 | 23.89° C | 41% | 1018.4 hPa | 0 mm | - | 335 W/m² | - |
| 1777761517 | 24.44° C | 41% | 1018.2 hPa | 0 mm | - | 344 W/m² | - |
* Rain latest hour (hover to see other rain measurements)
** Current wind speed in m/s (hover to see current wind gust speed)